[[{"header":{"parameterUnit":"m.s-1","parameterCategory":1,"la1":30.2991,"la2":30.254,"lo1":-89.0895,"lo2":-89.0444,"dy":0.0017,"dx":0.0017,"nx":28,"ny":28,"refTime":"2024-06-20T03:00:00:Z","depth":0,"parameterNumber":2,"parameterNumberName":"U-component_of_WINDS"},"data":[0,0,0,0,0,0,0,0,0,0,0,0,0,0,0,0,0,0,0,0,0,0,0,0,0,0,0,0,0,0,0,0,0,0,0,0,0,0,0,0,0,0,0,0,0,0,0,0,0,0,0,0,0,0,0,0,0,0,-8.466,-8.466,0,-8.4657,-8.4657,-8.4657,-8.448,-8.4475,-8.4471,-8.4467,-8.4464,-8.4468,-8.4473,0,0,0,0,0,0,0,0,0,0,0,0,0,-8.4517,-8.452,-8.466,-8.466,-8.466,-8.4657,-8.4657,-8.4657,-8.4481,-8.4475,-8.447,-8.4464,-8.4463,-8.4468,-8.4473,0,0,0,0,0,0,0,0,0,0,0,0,0,-8.4553,-8.4521,-8.466,-8.4572,-8.4564,-8.4657,-8.4657,-8.4657,-8.4482,-8.4475,-8.4468,-8.4462,-8.4461,-8.4467,-8.4474,-8.4651,0,0,-8.4493,-8.4496,0,0,0,0,0,0,0,0,-8.4551,-8.4558,-8.4585,-8.4578,-8.457,-8.4562,-8.4605,-8.4655,-8.4484,-8.4513,-8.4466,-8.4458,-8.4502,-8.4505,-8.4519,-8.4651,-8.4651,-8.4494,-8.4497,-8.45,-8.4502,0,0,0,0,0,0,0,-8.4549,-8.4558,-8.4659,-8.4586,-8.4576,-8.4533,-8.4531,-8.4614,-8.4547,-8.451,-8.4497,-8.4499,-8.4497,-8.4514,-8.4518,-8.4651,-8.4493,-8.4499,-8.4503,-8.4505,-8.4927,-8.4934,0,0,0,0,0,0,-8.4558,-8.4557,-8.4659,-8.4659,-8.4543,-8.4542,-8.4539,-8.4571,-8.4545,-8.4535,-8.4505,-8.4491,-8.4506,-8.4511,-8.4517,-8.4721,-8.45,-8.4506,-8.451,-8.4919,-8.4928,-8.4936,0,0,0,0,0,0,-8.4556,-8.4569,-8.4659,-8.4604,-8.4612,-8.4551,-8.4589,-8.4575,-8.4591,-8.4541,-8.4529,-8.4535,-8.4501,-8.4508,-8.4619,-8.4718,-8.4509,-8.4515,-8.4911,-8.4922,-8.4932,-8.5131,0,0,0,0,0,0,-8.4552,-8.4569,-8.4635,-8.4607,-8.4616,-8.476,-8.4596,-8.458,-8.4603,-8.4584,-8.4566,-8.4556,-8.4496,-8.461,-8.4625,-8.4723,-8.452,-8.4901,-8.4916,-8.4929,-8.5116,-8.5148,-8.5176,0,0,0,0,0,-8.4548,-8.4692,-8.4639,-8.4653,-8.4697,-8.4766,-8.4771,-8.4699,-8.4612,-8.4677,-8.4646,-8.4556,-8.4707,-8.4623,-8.4638,-8.474,-8.4895,-8.4912,-8.4928,-8.5102,-8.5142,-8.5175,0,0,0,0,0,0,-8.4733,-8.4686,-8.4628,-8.4767,-8.4772,-8.4736,-8.4817,-8.4744,-8.4774,-8.4755,-8.4666,-8.4663,-8.4787,-8.4775,-8.4683,-8.491,-8.4785,-8.4805,-8.4912,-8.4949,-8.4979,-8.4977,-8.4525,0,0,0,0,0,-8.4791,-8.485,-8.4806,-8.4933,-8.4939,-8.4879,-8.4906,-8.485,-8.4852,-8.4853,-8.4829,-8.4835,-8.4883,-8.4916,-8.4958,-8.5115,-8.5107,-8.5193,-8.5223,-8.5248,-8.5265,-8.5346,-8.5383,-8.4991,-8.4991,-8.499,0,0,-8.4909,-8.4891,-8.4933,-8.497,-8.4967,-8.5031,-8.4881,-8.4955,-8.5001,-8.4864,-8.4965,-8.495,-8.495,-8.5084,-8.5142,-8.5078,-8.5373,-8.5269,-8.5289,-8.5293,-8.5367,-8.5404,-8.5437,-8.5002,-8.5,-8.4998,0,0,-8.5155,-8.5149,-8.5253,-8.5254,-8.5252,-8.5211,-8.5237,-8.5213,-8.5196,-8.5297,-8.5196,-8.5251,-8.5336,-8.534,-8.5353,-8.5606,-8.5524,-8.5623,-8.5777,-8.5858,-8.5888,-8.5915,-8.6003,-8.6035,-8.5641,-8.5642,-8.5642,0,-8.5302,-8.5393,-8.5316,-8.5396,-8.5415,-8.5296,-8.54,-8.5405,-8.5418,-8.5434,-8.5362,-8.5467,-8.5459,-8.5591,-8.5653,-8.5669,-8.5695,-8.5621,-8.589,-8.5916,-8.594,-8.6022,-8.6056,-8.5653,-8.5652,-8.5651,-8.565,0,-8.5573,-8.5638,-8.5723,-8.5737,-8.5766,-8.5859,-8.5796,-8.5835,-8.5779,-8.5746,-8.585,-8.5838,-8.5874,-8.5902,-8.5848,-8.6028,-8.5988,-8.5906,-8.5777,-8.5991,-8.6066,-8.6097,-8.567,-8.5666,-8.5662,-8.5659,0,0,-8.5931,-8.5904,-8.5935,-8.594,-8.5931,-8.598,-8.6069,-8.6104,-8.6138,-8.6153,-8.6223,-8.6299,-8.6223,-8.6239,-8.6184,-8.6255,-8.6453,-8.6163,-8.6162,-8.6215,-8.6649,-8.6708,-8.6746,-8.6402,-8.6408,-8.6412,-8.6647,0,-8.6167,-8.6314,-8.6248,-8.6402,-8.6461,-8.635,-8.6426,-8.643,-8.6403,-8.6449,-8.642,-8.6474,-8.6371,-8.6379,-8.6445,-8.6415,-8.6539,-8.6398,-8.6465,-8.6468,-8.6463,-8.6785,-8.6848,-8.707,-8.6677,-8.6682,-8.6686,0,-8.6461,-8.6486,-8.6646,-8.6626,-8.6648,-8.6718,-8.6745,-8.6792,-8.6794,-8.677,-8.6789,-8.6719,-8.6804,-8.6681,-8.6797,-8.6703,-8.6728,-8.6718,-8.6725,-8.6725,-8.6586,-8.679,-8.714,-8.7172,-8.6732,-8.6728,-8.6725,0,-8.6702,-8.6778,-8.6882,-8.689,-8.6871,-8.6922,-8.6917,-8.6912,-8.6938,-8.6963,-8.6978,-8.7014,-8.7033,-8.7063,-8.7005,-8.6921,-8.7129,-8.7001,-8.7109,-8.7111,-8.7154,-8.7151,-8.7508,-8.7178,-8.7178,-8.7177,-8.7176,0,-8.697,-8.7071,-8.699,-8.7054,-8.7164,-8.709,-8.7201,-8.7184,-8.7181,-8.724,-8.7149,-8.7206,-8.7128,-8.7179,-8.7135,-8.7237,-8.7247,-8.7229,-8.7215,-8.7235,-8.7237,-8.7246,-8.7227,-8.7186,-8.7184,-8.7182,-8.7181,0,-8.7256,-8.7206,-8.7312,-8.7286,-8.7282,-8.7364,-8.7341,-8.74,-8.7368,-8.7444,-8.7458,-8.7408,-8.7462,-8.7409,-8.7461,-8.7432,-8.7567,-8.7534,-8.7566,-8.7555,-8.7665,-8.7654,-8.8037,-8.8082,-8.7727,-8.7731,-8.7734,0,-8.7428,-8.7503,-8.7485,-8.7517,-8.7517,-8.7572,-8.7597,-8.7528,-8.7559,-8.7568,-8.7626,-8.7673,-8.7706,-8.7799,-8.7768,-8.7808,-8.7771,-8.7903,-8.7776,-8.7794,-8.7769,-8.7764,-8.777,-8.7927,-8.7932,-8.7935,-8.7938,0,-8.7737,-8.7709,-8.7749,-8.7782,-8.7815,-8.7838,-8.7853,-8.7886,-8.7814,-8.7854,-8.7908,-8.7935,-8.7988,-8.8036,-8.8066,-8.8061,-8.7988,-8.7979,-8.8005,-8.8024,-8.8038,-8.8028,-8.7632,-8.7969,-8.7966,-8.7964,-8.7962,-8.7961,-8.7968,-8.8029,-8.8026,-8.8074,-8.8079,-8.8096,-8.8149,-8.8124,-8.8168,-8.8205,-8.8163,-8.823,-8.8231,-8.8265,-8.8269,-8.832,-8.8265,-8.8304,-8.8313,-8.8323,-8.8338,-8.8034,-8.8326,-8.8325,-8.8325,-8.8324,-8.8323,0,-8.8269,-8.8262,-8.8308,-8.8332,-8.837,-8.83,-8.8314,-8.835,-8.841,-8.8418,-8.8453,-8.8516,-8.8562,-8.8536,-8.8576,-8.8623,-8.859,-8.8635,-8.8629,-8.8629,-8.8387,-8.8358,-8.8661,-8.8661,-8.8661,-8.8661,-8.8661,-8.8661,-8.843,-8.8529,-8.8501,-8.8602,-8.8594,-8.8658,-8.8672,-8.8688,-8.8693,-8.8767,-8.8805,-8.8788,-8.8782,-8.8822,-8.8861,-8.8853,-8.887,-8.8927,-8.8906,-8.8679,-8.8646,-8.8614,-8.8586,-8.8932,-8.8933,-8.9143,-8.9145,-8.9146]},{"header":{"parameterUnit":"m.s-1","parameterCategory":1,"la1":30.2991,"la2":30.254,"lo1":-89.0895,"lo2":-89.0444,"dy":0.0017,"dx":0.0017,"nx":28,"ny":28,"refTime":"2024-06-20T03:00:00:Z","depth":0,"parameterNumber":3,"parameterNumberName":"V-component_of_WINDS"},"data":[0,0,0,0,0,0,0,0,0,0,0,0,0,0,0,0,0,0,0,0,0,0,0,0,0,0,0,0,0,0,0,0,0,0,0,0,0,0,0,0,0,0,0,0,0,0,0,0,0,0,0,0,0,0,0,0,0,0,2.7852,2.7852,0,2.7912,2.7913,2.7914,2.7975,2.7976,2.7977,2.7977,2.8034,2.8035,2.8036,0,0,0,0,0,0,0,0,0,0,0,0,0,2.7784,2.7785,2.7852,2.7852,2.7853,2.7912,2.7913,2.7914,2.7975,2.7976,2.7977,2.7978,2.8034,2.8035,2.8036,0,0,0,0,0,0,0,0,0,0,0,0,0,2.7826,2.7786,2.7852,2.7891,2.7895,2.7912,2.7913,2.7914,2.7975,2.7976,2.7977,2.7978,2.8034,2.8035,2.8036,2.8018,0,0,2.8039,2.804,0,0,0,0,0,0,0,0,2.7823,2.7828,2.7884,2.7888,2.7893,2.7938,2.791,2.7949,2.7974,2.7944,2.7977,2.7979,2.8001,2.8005,2.8013,2.802,2.8023,2.8039,2.804,2.8041,2.8041,0,0,0,0,0,0,0,2.7821,2.7826,2.7876,2.7885,2.789,2.7904,2.7911,2.7918,2.7964,2.7947,2.7951,2.7958,2.8003,2.8012,2.8015,2.8024,2.8039,2.804,2.8041,2.8042,2.8019,2.8018,0,0,0,0,0,0,2.7812,2.7823,2.7874,2.7877,2.7861,2.7904,2.7912,2.7922,2.7965,2.7972,2.7957,2.7961,2.8009,2.8014,2.8017,2.7998,2.8041,2.8042,2.8042,2.802,2.8019,2.8017,0,0,0,0,0,0,2.7811,2.7816,2.7871,2.7852,2.786,2.7904,2.7914,2.7922,2.7931,2.7972,2.798,2.7957,2.8011,2.8016,2.8017,2.8001,2.8042,2.8043,2.8022,2.802,2.8018,2.796,0,0,0,0,0,0,2.7808,2.7815,2.781,2.7851,2.7861,2.7871,2.7913,2.7923,2.7933,2.7939,2.7975,2.7982,2.8012,2.8015,2.8019,2.8003,2.8044,2.8023,2.8021,2.8018,2.7964,2.7957,2.7951,0,0,0,0,0,2.7806,2.779,2.7809,2.7815,2.7855,2.787,2.7876,2.7912,2.7932,2.7926,2.7953,2.7981,2.8003,2.8015,2.8019,2.8004,2.8024,2.8021,2.8019,2.7967,2.7958,2.7951,0,0,0,0,0,0,2.7743,2.7796,2.7818,2.7815,2.7838,2.7881,2.7874,2.7901,2.7918,2.7922,2.7965,2.7972,2.7969,2.7987,2.8,2.7989,2.8018,2.8015,2.7977,2.7969,2.7962,2.7957,2.8045,0,0,0,0,0,2.773,2.7739,2.7785,2.7778,2.7788,2.7829,2.7837,2.7864,2.7888,2.7898,2.7925,2.7946,2.7958,2.7965,2.7978,2.7967,2.7975,2.7959,2.7952,2.7947,2.7944,2.7939,2.7932,2.8008,2.8008,2.8008,0,0,2.77,2.773,2.7734,2.7766,2.7787,2.7795,2.7837,2.7843,2.7849,2.7898,2.7902,2.7922,2.7949,2.7945,2.7944,2.796,2.7925,2.7943,2.7938,2.7938,2.7935,2.7928,2.7921,2.8006,2.8006,2.8007,0,0,2.7651,2.7676,2.7673,2.7693,2.7725,2.7753,2.7752,2.7791,2.7807,2.7812,2.7849,2.7856,2.7875,2.7893,2.7904,2.7863,2.789,2.7867,2.7831,2.7826,2.782,2.7815,2.7799,2.7793,2.7864,2.7864,2.7864,0,2.761,2.7625,2.7667,2.7672,2.7684,2.7732,2.7728,2.7745,2.7779,2.7786,2.7804,2.783,2.7851,2.7851,2.7841,2.7849,2.7849,2.7862,2.7818,2.7813,2.7809,2.7794,2.7788,2.7861,2.7861,2.7861,2.7862,0,2.7573,2.7583,2.7576,2.761,2.7622,2.7622,2.7663,2.767,2.7695,2.772,2.7724,2.7752,2.7772,2.7774,2.7798,2.7778,2.7786,2.781,2.784,2.7798,2.7784,2.7779,2.7856,2.7857,2.7858,2.7859,0,0,2.7484,2.7542,2.7539,2.7555,2.7594,2.7602,2.7604,2.7625,2.763,2.7652,2.7654,2.767,2.7693,2.7706,2.7732,2.7728,2.7692,2.7752,2.7754,2.7739,2.767,2.7651,2.7644,2.7711,2.771,2.7709,2.7667,0,2.7441,2.745,2.7488,2.7484,2.7493,2.7539,2.7541,2.7564,2.7588,2.7598,2.7624,2.7635,2.7665,2.7673,2.7671,2.7697,2.7679,2.7701,2.7711,2.7711,2.7702,2.7637,2.7616,2.7575,2.7663,2.7662,2.7661,0,2.7391,2.7412,2.741,2.7449,2.7455,2.7456,2.7478,2.7488,2.7515,2.7533,2.7548,2.7579,2.7582,2.7612,2.7616,2.763,2.7637,2.7651,2.765,2.7651,2.7682,2.7634,2.7563,2.7556,2.7654,2.7654,2.7655,0,2.7325,2.7352,2.7355,2.7367,2.7414,2.7413,2.7432,2.7461,2.7472,2.7491,2.7498,2.7516,2.7526,2.7539,2.7573,2.7592,2.7574,2.7606,2.7587,2.7586,2.758,2.7579,2.7507,2.7586,2.7587,2.7587,2.7587,0,2.7272,2.7268,2.7326,2.7327,2.7325,2.7369,2.7364,2.7387,2.7413,2.7418,2.7459,2.7462,2.7509,2.7517,2.7544,2.7543,2.7548,2.7561,2.7568,2.7556,2.7554,2.756,2.7563,2.7585,2.7585,2.7586,2.7586,0,2.7197,2.7236,2.7241,2.7286,2.7297,2.7293,2.733,2.7332,2.7359,2.7366,2.737,2.7411,2.7424,2.746,2.7481,2.7499,2.749,2.7504,2.7481,2.7485,2.7464,2.7465,2.7391,2.7383,2.7469,2.7468,2.7467,0,2.7159,2.7158,2.7203,2.7211,2.7229,2.724,2.7251,2.7294,2.7304,2.7336,2.7333,2.735,2.7365,2.7382,2.7413,2.743,2.7444,2.7417,2.7446,2.7435,2.7441,2.744,2.744,2.7409,2.7408,2.7407,2.7407,0,2.7089,2.7108,2.7124,2.7146,2.7159,2.7178,2.72,2.7203,2.7251,2.726,2.7274,2.7286,2.7309,2.7323,2.7345,2.7363,2.7392,2.7398,2.7394,2.7381,2.7368,2.7373,2.7462,2.7399,2.7399,2.74,2.74,2.7401,2.7031,2.7032,2.7064,2.708,2.7101,2.712,2.7125,2.7153,2.7166,2.7189,2.7214,2.7225,2.7252,2.7284,2.73,2.7309,2.7324,2.7319,2.7317,2.7315,2.7309,2.7368,2.7313,2.7313,2.7313,2.7314,2.7314,0,2.6961,2.6984,2.6999,2.7028,2.7041,2.707,2.7095,2.7103,2.7113,2.7137,2.7151,2.7167,2.7182,2.7215,2.7233,2.7233,2.7247,2.7236,2.7236,2.7239,2.7295,2.7296,2.7225,2.7225,2.7225,2.7225,2.7225,2.7225,2.6926,2.6929,2.6953,2.6967,2.699,2.7002,2.7014,2.7032,2.7051,2.7068,2.7081,2.7103,2.713,2.7151,2.7165,2.7174,2.7178,2.7163,2.7176,2.7227,2.7235,2.7243,2.7244,2.7163,2.7163,2.7119,2.7119,2.7118]}]]